Погода в Баутцене

Германия     51°10′50″N   14°25′40″E
темп.,
°C
ветер,
м/с
пор.,
м/с
влажн.,
%
обл.,
%
осадки,
мм/ч
давл.,
гПа
погр.,
м
24 мая, вт
вт2423:00+16юв61361100 0.0 1004489
02:00+16ю61264100 0.1 1003606
05:00+14ю4986100 0.4 1004263
08:00+15юз41085100 0.4 1005427
11:00+20зюз566497 0.1 10061255
14:00+22з6853100 0.2 10071649
17:00+19з6867100 0.1 1009931
20:00+16зсз127898 0.1 101020
25 мая, ср
ср2523:00+14ююз2279100 0.0 101218
02:00+15юз3571100 0.0 1013137
05:00+12зюз2375100 0.0 101341
08:00+14з4674100 0.0 1015405
11:00+17з5657100 0.0 10161170
14:00+20з67425 0.0 10152093
17:00+19зсз674816 0.0 10161066
20:00+16зюз376691 0.0 1017145
26 мая, чт
чт2623:00+13ююз336811 0.0 101833
02:00+15юз5115621 0.0 1018372
05:00+10юз397578 0.0 1018186
08:00+15зюз61163100 0.0 1019576
11:00+17з7115997 0.0 10191213
14:00+20з81251100 0.1 10192133
17:00+18зсз7105888 0.1 10191206
20:00+17з496898 0.1 1019657
27 мая, пт
пт2723:00+13юз33825 0.0 101947
02:00+14ююз4117689 0.0 1017269
05:00+14юз61572100 0.0 1014502
08:00+14зюз81580100 0.3 1013957
11:00+12з61289100 3.9 1015980
14:00+15з9136323 4.7 10141755
17:00+14з815506 0.2 10141988
20:00+13зсз713555 0.3 10141440
28 мая, сб
сб2823:00+10з715595 0.0 10151240
02:00+8з7157088 0.1 10151220
05:00+9з81466100 0.0 10141575
08:00+10з813625 0.0 10151492
11:00+13з9124555 0.0 10152074
14:00+14з111457100 0.1 10151890
17:00+13з8136499 0.1 10141542
20:00+13з6116814 0.1 1013933